sat.trackr.live / text

‹ back to catalog

STARLINK-30908

NORAD 58424 · 2023-180Y

PAYLOAD ACTIVE UNKNOWN

§ Identity

Operator
Country
US
Launch date
2023-11-22
Launch site
AFETR
Launch vehicle
Mass (kg)
RCS (m²)

Purposes: comms

External: N2YO · Heavens-Above · Gunter

§ Orbital elements

Epoch: 2026-09-20T15:35:16.675584Z

Period
94.27 min
Inclination
43.0025°
Eccentricity
0.0001982
Mean motion
15.27575612 rev/d
Perigee alt
481.7 km
Apogee alt
484.4 km
Semi-major
6,861.2 km
B*
3.1024e-5
RAAN
31.3304°
Arg perigee
274.3395°
Mean anomaly
85.7231°
Rev number
15,744

§ Raw data

STARLINK-309081 58424U 23180Y   26263.64949856  .00000591  00000+0  31024-4 0  99952 58424  43.0025  31.3304 0001982 274.3395  85.7231 15.27575612157444

JSON: /api/v1/satellites/58424 · /tle

For live sub-satellite position, see the globe view (requires WebGL).

§ Visibility from observer

Set your observer location to see the next 7 days of passes ≥ 10°. The values pass through the URL so the page stays shareable.

No JS? Fill the form by hand. The geolocation button needs JavaScript.